CFG25L EDDM-EDDF

Flight info

Callsign CFG25L
Flight time N/A
Altitude 24000
Route GIVMI1N/26R GIVMI Y101 ERNAS T161 DEBHI DEBHI1B
Aircraft A319/M-SDE3FGHIRWY/LB1

Departure

Time 2026-05-06 17:12
Airport Munich Airport (EDDM)

Arrival

Time N/A
Airport Frankfurt Main Airport (EDDF)
Time Latitude Longitude Altitude Speed Heading
2026-05-06 16:47 48.35052 11.78375 1466 ft 0 kts 81°
2026-05-06 17:00 48.35052 11.78369 1467 ft 7 kts 81°
2026-05-06 17:00 48.35046 11.78308 1464 ft 8 kts 83°
2026-05-06 17:00 48.35042 11.78265 1463 ft 4 kts 84°
2026-05-06 17:01 48.35036 11.78196 1461 ft 2 kts 67°
2026-05-06 17:01 48.35028 11.78184 1462 ft 2 kts 321°
2026-05-06 17:01 48.35019 11.78195 1459 ft 4 kts 10°
2026-05-06 17:01 48.35004 11.78192 1463 ft 0 kts 360°
2026-05-06 17:03 48.35021 11.78191 1458 ft 6 kts 356°
2026-05-06 17:03 48.35094 11.78179 1459 ft 15 kts 353°
2026-05-06 17:03 48.35205 11.78119 1466 ft 19 kts 290°
2026-05-06 17:04 48.35190 11.77919 1466 ft 19 kts 262°
2026-05-06 17:04 48.35268 11.77803 1462 ft 18 kts 351°
2026-05-06 17:04 48.35351 11.77783 1461 ft 18 kts 351°
2026-05-06 17:04 48.35477 11.77759 1466 ft 18 kts 353°
2026-05-06 17:05 48.35605 11.77736 1459 ft 19 kts 353°
2026-05-06 17:05 48.35734 11.77713 1466 ft 19 kts 353°
2026-05-06 17:05 48.35859 11.77691 1466 ft 10 kts 354°
2026-05-06 17:05 48.35863 11.77690 1466 ft 0 kts 354°
2026-05-06 17:06 48.35892 11.77685 1462 ft 13 kts 354°
2026-05-06 17:07 48.35977 11.77821 1467 ft 30 kts 85°
2026-05-06 17:07 48.36007 11.78221 1460 ft 46 kts 83°
2026-05-06 17:07 48.36043 11.78691 1467 ft 44 kts 83°
2026-05-06 17:07 48.36072 11.79074 1468 ft 34 kts 83°
2026-05-06 17:08 48.36101 11.79442 1465 ft 37 kts 83°
2026-05-06 17:08 48.36133 11.79844 1468 ft 40 kts 83°
2026-05-06 17:08 48.36167 11.80277 1461 ft 43 kts 83°
2026-05-06 17:08 48.36192 11.80598 1467 ft 0 kts 84°
2026-05-06 17:09 48.36193 11.80601 1467 ft 1 kts 75°
2026-05-06 17:09 48.36222 11.80603 1462 ft 8 kts 349°
2026-05-06 17:09 48.36298 11.80626 1465 ft 16 kts 60°
2026-05-06 17:09 48.36316 11.80823 1464 ft 21 kts 82°
2026-05-06 17:10 48.36334 11.81019 1467 ft 17 kts 82°
2026-05-06 17:10 48.36344 11.81161 1467 ft 12 kts 82°
2026-05-06 17:10 48.36399 11.81221 1464 ft 10 kts 329°
2026-05-06 17:10 48.36435 11.81128 1465 ft 10 kts 293°
2026-05-06 17:11 48.36466 11.81019 1463 ft 14 kts 293°
2026-05-06 17:11 48.36515 11.80851 1465 ft 21 kts 294°
2026-05-06 17:11 48.36568 11.80608 1459 ft 27 kts 274°
2026-05-06 17:11 48.36560 11.80438 1466 ft 19 kts 264°
2026-05-06 17:12 48.36513 11.79829 1464 ft 94 kts 263°
2026-05-06 17:12 48.36415 11.78540 1463 ft 152 kts 263°
2026-05-06 17:12 48.36287 11.76885 1929 ft 159 kts 263°
2026-05-06 17:12 48.36166 11.75228 2563 ft 160 kts 264°
2026-05-06 17:13 48.36041 11.73541 3097 ft 169 kts 264°
2026-05-06 17:13 48.35900 11.71672 3421 ft 191 kts 263°
2026-05-06 17:13 48.35743 11.69567 3733 ft 214 kts 265°
2026-05-06 17:13 48.35999 11.67275 4112 ft 235 kts 294°
2026-05-06 17:14 48.36863 11.65096 4632 ft 254 kts 302°
2026-05-06 17:14 48.37825 11.62777 5340 ft 267 kts 301°
2026-05-06 17:14 48.38811 11.60375 6248 ft 271 kts 301°
2026-05-06 17:14 48.39809 11.57940 7173 ft 275 kts 301°
2026-05-06 17:15 48.40803 11.55496 8073 ft 279 kts 301°
2026-05-06 17:15 48.41819 11.52985 8965 ft 283 kts 301°
2026-05-06 17:15 48.42849 11.50436 9832 ft 287 kts 301°
2026-05-06 17:15 48.43888 11.47868 10671 ft 290 kts 301°
2026-05-06 17:16 48.45109 11.45422 11491 ft 295 kts 315°
2026-05-06 17:16 48.46742 11.43534 12253 ft 302 kts 330°
2026-05-06 17:16 48.48761 11.42314 12540 ft 325 kts 347°
2026-05-06 17:16 48.51053 11.41684 12901 ft 342 kts 350°
2026-05-06 17:17 48.53424 11.41059 13557 ft 348 kts 350°
2026-05-06 17:17 48.55823 11.40416 14260 ft 353 kts 349°
2026-05-06 17:17 48.58253 11.39754 14962 ft 356 kts 349°
2026-05-06 17:17 48.60705 11.39079 15649 ft 360 kts 349°
2026-05-06 17:18 48.63182 11.38399 16316 ft 364 kts 349°
2026-05-06 17:18 48.65685 11.37711 16966 ft 367 kts 349°
2026-05-06 17:18 48.68209 11.36969 17606 ft 371 kts 345°
2026-05-06 17:18 48.70361 11.35846 18144 ft 374 kts 335°
2026-05-06 17:19 48.72641 11.33923 18756 ft 377 kts 326°
2026-05-06 17:19 48.74828 11.31703 19364 ft 380 kts 326°
2026-05-06 17:19 48.77036 11.29469 19959 ft 383 kts 326°
2026-05-06 17:19 48.79266 11.27219 20539 ft 387 kts 326°
2026-05-06 17:20 48.81513 11.24944 21104 ft 390 kts 326°